Regional Weather Roundup
Issued by NWS Cleveland, OH

Home | Current Version | Previous Version | Text Only | Print | Product List | Glossary Off
Versions: 1 2 3 4 5 6 7 8 9 10 11 12 13 14 15 16 17 18 19 20 21 22 23 24 25 26 27 28 29 30 31 32 33 34 35 36 37 38 39 40 41 42 43 44 45 46 47 48 49 50

000
ASUS41 KCLE 312002
RWRCLE
OHIO REGIONAL WEATHER ROUNDUP
NATIONAL WEATHER SERVICE CLEVELAND, OH
400 PM EDT FRI OCT 31 2014

NOTE: "FAIR" INDICATES FEW OR NO CLOUDS BELOW 12,000 FEET WITH NO
SIGNIFICANT WEATHER AND/OR OBSTRUCTIONS TO VISIBILITY.

OHZ001>008-015>018-024>027-034-035-043-044-312100-
   NORTHWEST OHIO

CITY           SKY/WX    TMP DP  RH WIND       PRES   REMARKS
DEFIANCE       LGT RAIN  43  39  86 N7        29.91R
FINDLAY        LGT RAIN  43  39  86 NW9       29.87R
TOLEDO EXPRESS LGT RAIN  42  38  85 N14G21    29.88S
TOLEDO EXEC    LGT RAIN  43  38  82 NW15      29.88S
LIMA           LGT RAIN  42  38  85 NW15      29.89R
$$

OHZ009>014-019>023-028>033-038-089-312100-
   NORTHEAST OHIO

CITY           SKY/WX    TMP DP  RH WIND       PRES   REMARKS
CLE-HOPKINS    LGT RAIN  46  39  76 CALM      29.87F
CLE-LAKEFRONT  LGT RAIN N/A N/A N/A SW3       29.85S
CUY CO. ARPT   CLOUDY    50  39  66 W5        29.86S
LORAIN-ELYRIA  LGT RAIN  44  40  85 W5        29.86S
ASHTABULA      CLOUDY    47  36  65 CALM      29.86S
AKRON-CANTON   LGT RAIN  46  38  73 S6        29.84S
WOOSTER        LGT RAIN  47  38  71 W9        29.85R
MANSFIELD      LGT RAIN  43  40  89 W5        29.84S
YOUNGSTOWN     CLOUDY    46  36  68 SW3       29.85S
$$

OHZ042-051>053-060>062-070>072-077>081-312100-
  SOUTHWEST OHIO

CITY           SKY/WX    TMP DP  RH WIND       PRES   REMARKS
CINC-COVINGTON LGT RAIN  41  36  82 NW15G22   29.93R
CINC-LUNKEN    LGT RAIN  41  36  82 NW13G18   29.95R
HAMILTON       LGT RAIN  42  37  82 NW15      29.94S
DAYTON         LGT RAIN  42  38  85 NW15      29.91S
WRIGHT-PAT AFB LGT RAIN  41  37  87 W10       29.89S
DAYTON GENERAL LGT RAIN  40  37  89 NW12      29.90S
WILMINGTON     LGT RAIN  40  36  86 NW16      29.88R
$$

OHZ036-037-039>041-045>050-054>059-063>069-073>076-082>088-312100-
  CENTRAL AND SOUTHEAST OHIO

CITY           SKY/WX    TMP DP  RH WIND       PRES   REMARKS
COLUMBUS       LGT RAIN  45  39  79 NW7       29.85S
OSU AIRPORT    LGT RAIN  42  38  85 NW13      29.85S
BOLTON FIELD   CLOUDY    43  39  87 NW8       29.86S
RICKENBACK AFB NOT AVBL
NEWARK         LGT RAIN  44  37  76 W8G16     29.84S
MARION         LGT RAIN  42  38  85 NW10      29.85S
LANCASTER      LGT RAIN  44  40  85 W3        29.86R FOG
ZANESVILLE     LGT RAIN  44  39  82 SW5       29.85S
NEW PHILLY     CLOUDY    47  38  71 SE3       29.86S
$$



USA.gov is the U.S. government's official web portal to all federal, state and local government web resources and services.